Printer-friendly version

IAU Minor Planet Center

Minor Planet Center

MPEC 2004-F50 : 2004 FA5

The following Minor Planet Electronic Circular may be linked-to from your own Web pages, but must not otherwise be redistributed electronically.


Read MPEC 2004-F49 Read MPEC 2004-F51


M.P.E.C. 2004-F50                                Issued 2004 Mar. 23, 00:40 UT

     The Minor Planet Electronic Circulars contain information on unusual
         minor planets and routine data on comets.  They are published
   on behalf of Commission 20 of the International Astronomical Union by the
          Minor Planet Center, Smithsonian Astrophysical Observatory,
                          Cambridge, MA 02138, U.S.A.

         Supported in part by the Steven and Michele Kirsch Foundation
             Prepared using the Tamkin Foundation Computer Network

                              MPC@CFA.HARVARD.EDU
          URL http://cfa-www.harvard.edu/iau/mpc.html  ISSN 1523-6714

                                   2004 FA5

Observations:
     K04F05A* C2004 03 20.29308 11 03 48.17 +14 39 54.5          19.1   EF050704
     K04F05A  C2004 03 20.30397 11 03 53.21 +14 46 09.7          18.8   EF050704
     K04F05A  C2004 03 20.31521 11 03 58.47 +14 52 38.4          19.4   EF050704
     K04F05A  C2004 03 20.32846 11 04 04.64 +15 00 17.0          18.8   EF050704
     K04F05A  C2004 03 22.28090 11 30 22.15 +37 26 30.2          19.3   EF050704
     K04F05A  C2004 03 22.29210 11 30 33.36 +37 35 08.8          19.0   EF050704
     K04F05A  C2004 03 22.29227 11 30 33.49 +37 35 16.6          19.0   EF050704
     K04F05A  C2004 03 22.30371 11 30 44.99 +37 44 05.2          18.9   EF050704
     K04F05A  C2004 03 22.30388 11 30 45.13 +37 44 12.7          19.2   EF050704
     K04F05A  C2004 03 22.31506 11 30 56.46 +37 52 48.8          19.7   EF050704
     K04F05A  C2004 03 22.31529 11 30 56.70 +37 53 00.4          19.3   EF050704
     K04F05A  C2004 03 22.32628 11 31 07.83 +38 01 26.5          19.7   EF050704
     K04F05A  C2004 03 22.32645 11 31 07.99 +38 01 35.1          20.0   EF050704

Observer details:
704 Lincoln Laboratory ETS, New Mexico.  Observers M. Blythe, F. Shelly,
    M. Bezpalko, R. Huber, L. Manguso, D. Torres, R. Kracke, M. McCleary,
    H. Stange, A. Milner.  Measurers J. Stuart, R. Sayer, J. Evans, J. Kommers.
    1.0-m f/2.15 reflector + CCD.

Orbital elements:
2004 FA5
Epoch 2004 July 14.0 TT = JDT 2453200.5                 MPC
M  44.21791              (2000.0)            P               Q
n   0.65848466     Peri.   58.56390     -0.54302902     +0.83968624
a   1.3084956      Node   178.49361     -0.83122002     -0.53636623
e   0.3006268      Incl.   15.03528     -0.11913336     -0.08507816
P   1.50           H   24.8           G   0.15           U   7
Residuals in seconds of arc
040320 704  0.6-  0.7+    040322 704  0.2+  0.3+    040322 704  0.3+  0.4+
040320 704  0.2-  0.1-    040322 704  0.2-  0.2+    040322 704  0.2-  0.5-
040320 704  0.5+  0.1-    040322 704  0.1+  0.0     040322 704  0.4-  0.3+
040320 704  0.1+  0.5-    040322 704  0.3-  0.4-
040322 704  0.3-  0.0     040322 704  0.2+  0.6-

Ephemeris:
2004 FA5                 a,e,i = 1.31, 0.30, 15                  q = 0.9151
Date    TT    R. A. (2000) Decl.     Delta      r     Elong.  Phase     V
2004 03 16    10 40.10   -11 20.9    0.051    1.043   159.4    19.6    19.4
2004 03 17    10 43.68   -07 23.4    0.046    1.039   161.8    17.4    19.1
2004 03 18    10 48.15   -02 24.3    0.041    1.034   163.8    15.5    18.8
2004 03 19    10 53.82   +03 55.5    0.036    1.030   164.3    15.1    18.5
2004 03 20    11 01.24   +11 57.6    0.032    1.026   161.5    18.0    18.3
2004 03 21    11 11.24   +21 58.3    0.029    1.022   154.5    24.8    18.3
2004 03 22    11 25.34   +33 51.0    0.027    1.018   144.2    34.9    18.4
2004 03 23    11 46.37   +46 44.6    0.026    1.015   131.9    47.0    18.7
2004 03 24    12 20.18   +59 06.0    0.027    1.011   119.4    59.2    19.1
2004 03 25    13 19.04   +69 12.3    0.029    1.007   108.2    70.2    19.6
2004 03 26    15 01.7    +75 29.6    0.033    1.003    98.8    79.3    20.1
2004 03 27    17 13.7    +76 56.0    0.037    0.999    91.4    86.5    20.7
2004 03 28    18 52.0    +74 58.5    0.041    0.996    85.5    92.1    21.1
2004 03 29    19 48.0    +72 00.6    0.046    0.992    80.9    96.4    21.6
2004 03 30    20 20.49   +69 05.7    0.051    0.989    77.3    99.8    21.9
2004 03 31    20 40.99   +66 30.1    0.057    0.985    74.4   102.4    22.3
2004 04 01    20 54.95   +64 15.1    0.062    0.982    72.0   104.5    22.6
2004 04 02    21 05.05   +62 18.5    0.068    0.979    70.1   106.1    22.9
2004 04 03    21 12.73   +60 37.5    0.074    0.975    68.5   107.5    23.1
2004 04 04    21 18.79   +59 09.4    0.079    0.972    67.2   108.5    23.3
2004 04 05    21 23.73   +57 51.9    0.085    0.969    66.1   109.3    23.5

Kyle E. Smalley              (C) Copyright 2004 MPC           M.P.E.C. 2004-F50

Read MPEC 2004-F49 Read MPEC 2004-F51


Our Web policy. Index to the CBAT/MPC/ICQ pages.


Valid HTML 4.01!